Terminal Aerodrome Forecast
Issued by NWS Duluth, MN

Home | Current Version | Previous Version | Text Only | Print | Product List | Glossary On
Versions: 1 2 3 4 5 6 7 8 9 10 11 12 13 14 15 16 17 18 19 20 21 22 23 24
000
FTUS43 KDLH 051727
TAFINL
TAF
KINL 051727Z 0518/0618 18012KT 6SM FU VCTS SCT020 BKN070CB
     FM052000 20012G23KT 5SM -TSRA BKN040CB
      TEMPO 0520/0522 VRB20G35KT 1 1/2SM +TSRA
     FM052300 03015KT 6SM -RA VCTS SCT050 BKN070CB
     FM060200 35008KT 4SM BR VCSH OVC025
     FM060900 35004KT P6SM SCT040 OVC100
     FM061300 33007KT P6SM OVC120=

USA.gov is the U.S. government's official web portal to all federal, state and local government web resources and services.